North Pole, Alaska, United States (99705)
Lat: 64.75N, Lon: 147.35W
Wx Zone: AKZ222
Local Info
Past Weather Observations for Friday, July 25, 2014

NOTE: This archive is for the closest National Weather Service station to North Pole. Information may differ from the station used for current weather conditions.

Click here for Long-term Archive

Time Weather Temperature Dewpoint Humidity Pressure Winds Precip Visibility
23:56
Overcast
46°F / 8°C 45°F / 7°C 93% 29.92 in
(1013 mb)
Calm - 10SM
22:56
Overcast
48°F / 9°C 45°F / 7°C 87% 29.92 in
(1013 mb)
Calm - 10SM
21:56
Overcast
52°F / 11°C 45°F / 7°C 77% 29.92 in
(1013 mb)
Calm - 10SM
20:56
Mostly Cloudy
54°F / 12°C 43°F / 6°C 67% 29.92 in
(1013 mb)
NW 5.8 mph
(NW 9 kph)
- 10SM
19:56
Overcast
55°F / 13°C 43°F / 6°C 63% 29.92 in
(1013 mb)
N 6.9 mph
(N 11 kph)
0.00 in
(0.00 mm)
10SM
18:56
Mostly Cloudy
57°F / 14°C 43°F / 6°C 59% 29.89 in
(1012 mb)
Calm 0.00 in
(0.00 mm)
10SM
18:55
Mostly Cloudy
57°F / 14°C 43°F / 6°C 59% 29.89 in
(1012 mb)
NNE 4.6 mph
(NNE 7 kph)
- 10SM
18:24
Mostly Cloudy
Partly Cloudy
55°F / 13°C 45°F / 7°C 67% 29.89 in
(1012 mb)
NNE 5.8 mph
(NNE 9 kph)
- 10SM
18:15
Mostly Cloudy
Light Rain
57°F / 14°C 45°F / 7°C 63% 29.89 in
(1012 mb)
NNW 8.1 mph
(NNW 13 kph)
- 10SM
17:55
Mostly Cloudy
59°F / 15°C 39°F / 4°C 48% 29.89 in
(1012 mb)
NNW 4.6 mph
(NNW 7 kph)
- 10SM
16:55
Mostly Cloudy
59°F / 15°C 39°F / 4°C 48% 29.89 in
(1012 mb)
Variable 6.9 mph
(Variable 11 kph)
- 10SM
15:55
Mostly Cloudy
57°F / 14°C 43°F / 6°C 59% 29.89 in
(1012 mb)
Calm - 10SM
14:55
Mostly Cloudy
55°F / 13°C 43°F / 6°C 63% 29.89 in
(1012 mb)
S 5.8 mph
(S 9 kph)
- 10SM
13:55
Mostly Cloudy
55°F / 13°C 43°F / 6°C 63% 29.89 in
(1012 mb)
Variable 3.5 mph
(Variable 6 kph)
- 10SM
12:55
Mostly Cloudy
54°F / 12°C 43°F / 6°C 67% 29.89 in
(1012 mb)
SW 8.1 mph
(SW 13 kph)
- 13SM
11:55
Mostly Cloudy
54°F / 12°C 43°F / 6°C 67% 29.89 in
(1012 mb)
SSW 9.2 mph
(SSW 15 kph)
- 13SM
10:55
Mostly Cloudy
52°F / 11°C 43°F / 6°C 72% 29.89 in
(1012 mb)
SSW 10.4 mph
(SSW 17 kph)
- 13SM
10:46
Mostly Cloudy
52°F / 11°C 43°F / 6°C 72% 29.89 in
(1012 mb)
SSW 9.2 mph
(SSW 15 kph)
- 13SM
09:55
Mostly Cloudy
50°F / 10°C 45°F / 7°C 82% 29.89 in
(1012 mb)
SW 10.4 mph
(SW 17 kph)
- 13SM
08:55
Mostly Cloudy
48°F / 9°C 45°F / 7°C 87% 29.86 in
(1011 mb)
SSW 8.1 mph
(SSW 13 kph)
- 13SM
07:55
Mostly Cloudy
48°F / 9°C 45°F / 7°C 87% 29.83 in
(1010 mb)
SSW 8.1 mph
(SSW 13 kph)
- 13SM
06:55
Mostly Cloudy
50°F / 10°C 46°F / 8°C 88% 29.8 in
(1009 mb)
SW 11.5 mph
(SW 19 kph)
- 13SM
05:55
Overcast
50°F / 10°C 46°F / 8°C 88% 29.8 in
(1009 mb)
SSW 9.2 mph
(SSW 15 kph)
- 13SM
05:26
Overcast
50°F / 10°C 46°F / 8°C 88% 29.8 in
(1009 mb)
SSW 11.5 mph
(SSW 19 kph)
- 13SM
04:56
Overcast
Light Rain
50°F / 10°C 46°F / 8°C 88% 29.77 in
(1008 mb)
SSW 9.2 mph
(SSW 15 kph)
0.00 in
(0.00 mm)
10SM
04:03
Overcast
Light Rain
52°F / 11°C 48°F / 9°C 88% 29.77 in
(1008 mb)
SSW 6.9 mph
(SSW 11 kph)
0.00 in
(0.00 mm)
9SM
03:56
Overcast
Light Rain
52°F / 11°C 48°F / 9°C 88% 29.77 in
(1008 mb)
SSW 10.4 mph
(SSW 17 kph)
0.00 in
(0.00 mm)
9SM
03:44
Overcast
Light Rain
52°F / 11°C 48°F / 9°C 88% 29.77 in
(1008 mb)
SSW 6.9 mph
(SSW 11 kph)
0.00 in
(0.00 mm)
6SM
03:25
Overcast
Light Rain
52°F / 11°C 48°F / 9°C 88% 29.77 in
(1008 mb)
SW 6.9 mph
(SW 11 kph)
0.00 in
(0.00 mm)
10SM
03:14
Overcast
52°F / 11°C 48°F / 9°C 88% 29.77 in
(1008 mb)
SW 8.1 mph
(SW 13 kph)
- 10SM
02:56
Overcast
52°F / 11°C 48°F / 9°C 88% 29.77 in
(1008 mb)
SW 6.9 mph
(SW 11 kph)
0.00 in
(0.00 mm)
10SM
02:54
Overcast
52°F / 11°C 48°F / 9°C 88% 29.77 in
(1008 mb)
SW 8.1 mph
(SW 13 kph)
0.00 in
(0.00 mm)
10SM
01:56
Overcast
52°F / 11°C 48°F / 9°C 88% 29.77 in
(1008 mb)
S 5.8 mph
(S 9 kph)
- 10SM
01:28
Overcast
52°F / 11°C 48°F / 9°C 88% 29.77 in
(1008 mb)
S 4.6 mph
(S 7 kph)
- 10SM
01:20
Overcast
52°F / 11°C 48°F / 9°C 88% 29.74 in
(1007 mb)
S 4.6 mph
(S 7 kph)
- 10SM
01:03
Overcast
52°F / 11°C 48°F / 9°C 88% 29.77 in
(1008 mb)
S 4.6 mph
(S 7 kph)
- 10SM
00:56
Overcast
52°F / 11°C 48°F / 9°C 88% 29.77 in
(1008 mb)
S 4.6 mph
(S 7 kph)
- 10SM
00:46
Overcast
52°F / 11°C 48°F / 9°C 88% 29.77 in
(1008 mb)
S 5.8 mph
(S 9 kph)
- 10SM
Time Weather Temperature Dewpoint Humidity Pressure Winds Precip Visibility


Weather for websites

WeatherForYou.com, LLC is not responsible for any damages or problems caused by this service. Current weather conditions are obtained from the closest station including government and personal stations which may have varying degrees of accuracy. Weather forecasts are derived from the NOAA NDFD. Like all things, this site belongs to Jesus Christ... He just trusts me to maintain it. If you have any questions or comments email webmaster@weatherforyou.com

Copyright © 2014, WeatherForYou.com LLC. All rights reserved.